TimeADT,TemperatureF,Dew PointF,Humidity,Sea Level PressureIn,VisibilityMPH,Wind Direction,Wind SpeedMPH,Gust SpeedMPH,PrecipitationIn,Events,Conditions,WindDirDegrees,DateUTC
12:00 AM,59.9,53.6,80,29.82,-9999.0,West,4.6,-,N/A,,Unknown,260,2012-10-03 03:00:00
1:00 AM,59.2,53.1,80,29.82,-9999.0,WNW,3.5,-,N/A,,Unknown,290,2012-10-03 04:00:00
2:00 AM,58.1,52.2,81,29.82,-9999.0,West,2.3,-,N/A,,Unknown,280,2012-10-03 05:00:00
3:00 AM,58,52,75,29.83,,West,3.5,,,,,270,2012-10-03 06:00:00
3:00 AM,57.7,52.2,82,29.83,-9999.0,West,3.5,-,N/A,,Unknown,270,2012-10-03 06:00:00
4:00 AM,56.8,51.6,83,29.83,-9999.0,West,4.6,-,N/A,,Unknown,260,2012-10-03 07:00:00
5:00 AM,55.0,51.1,86,29.84,-9999.0,West,3.5,-,N/A,,Unknown,260,2012-10-03 08:00:00
6:00 AM,56.1,51.3,84,29.84,-9999.0,West,4.6,-,N/A,,Unknown,280,2012-10-03 09:00:00
7:00 AM,56.3,50.7,82,29.85,-9999.0,West,3.5,-,N/A,,Unknown,280,2012-10-03 10:00:00
8:00 AM,59.0,50.0,72,29.87,-9999.0,WNW,5.8,-,N/A,,Unknown,300,2012-10-03 11:00:00
9:00 AM,62,51,58,29.88,,WNW,5.8,,,,,300,2012-10-03 12:00:00
9:00 AM,61.5,50.9,68,29.88,-9999.0,WNW,5.8,-,N/A,,Unknown,300,2012-10-03 12:00:00
10:00 AM,64.0,51.3,63,29.89,-9999.0,WNW,5.8,-,N/A,,Unknown,300,2012-10-03 13:00:00
11:00 AM,64.8,50.4,60,29.88,-9999.0,NW,8.1,-,N/A,,Unknown,310,2012-10-03 14:00:00
12:00 PM,63.5,49.6,61,29.89,-9999.0,NNW,8.1,18.4,N/A,,Unknown,340,2012-10-03 15:00:00
1:00 PM,61.9,49.5,64,29.90,-9999.0,NNW,6.9,-,N/A,,Unknown,340,2012-10-03 16:00:00
2:00 PM,61.3,48.6,63,29.91,-9999.0,NW,5.8,18.4,N/A,,Unknown,310,2012-10-03 17:00:00
3:00 PM,60,48,56,29.92,,NW,5.8,,,,,310,2012-10-03 18:00:00
3:00 PM,59.9,48.4,66,29.92,-9999.0,NW,5.8,-,N/A,,Unknown,310,2012-10-03 18:00:00
4:00 PM,58.1,48.7,71,29.94,-9999.0,NW,5.8,17.3,N/A,,Unknown,320,2012-10-03 19:00:00
5:00 PM,57.4,48.2,71,29.94,-9999.0,NW,5.8,20.7,N/A,,Unknown,310,2012-10-03 20:00:00
6:00 PM,56.1,48.4,75,29.96,-9999.0,NW,5.8,-,N/A,,Unknown,310,2012-10-03 21:00:00
7:00 PM,55.6,47.7,75,30.00,-9999.0,NW,2.3,-,N/A,,Unknown,320,2012-10-03 22:00:00
8:00 PM,56.1,47.7,73,30.01,-9999.0,NW,5.8,-,N/A,,Unknown,320,2012-10-03 23:00:00
9:00 PM,57,48,64,30.03,,NW,6.9,,,,,320,2012-10-04 00:00:00
9:00 PM,57.2,48.0,71,30.03,-9999.0,NW,6.9,-,N/A,,Unknown,320,2012-10-04 00:00:00
10:00 PM,57.4,48.6,72,30.03,-9999.0,NNW,4.6,-,N/A,,Unknown,330,2012-10-04 01:00:00
11:00 PM,58.1,49.3,72,30.04,-9999.0,North,5.8,-,N/A,,Unknown,360,2012-10-04 02:00:00